Theta_e
289 289 292 293 293 297 298 301 302 309 313 311 315 316 322 328 320 328 326 323 326 325
288 288 289 290 290 292 295 298 300 304 305 306 307 308 310 315 310 311 309 309 310 313
287 287 288 287 287 288 290 293 296 298 299 299 299 299 299 300 303 302 301 301 300 300
286 286 286 286 285 286 287 290 293 293 293 293 294 294 293 294 294 293 292 293 292 293
285 285 284 283 284 285 285 288 290 292 291 291 291 290 290 289 289 289 288 289 289 288
284 284 282 282 282 283 284 284 285 287 288 288 287 287 288 287 287 286 286 286 286 285
282 283 283 282 281 281 282 283 283 283 285 286 286 286 286 285 285 285 285 286 285 285
282 282 282 281 280 280 279 280 282 282 282 283 284 285 284 284 284 284 284 284 285 285
280 280 280 280 279 278 278 278 279 280 281 281 282 285 285 284 282 283 282 282 283 283
279 278 278 278 278 277 276 277 277 277 279 280 280 283 283 283 281 280 281 281 281 281
278 277 277 276 275 275 275 275 275 276 277 279 280 281 281 280 280 280 278 279 280 279
277 276 276 275 275 274 274 274 274 275 276 275 279 281 279 278 277 278 276 276 278 278
278 276 275 275 274 275 274 274 274 274 274 277 274 280 280 277 275 273 273 273 274 278
278 276 275 275 275 274 273 273 271 272 273 273 275 275 279 278 273 272 270 270 270 272
Wind_Speed
16 10 10 11 11 9 8 7 11 6 4 1 1 3 3 10 2 2 3 4 6 5
16 16 14 15 12 11 12 9 10 4 8 7 9 13 16 7 10 8 8 6 9 8
13 16 15 15 18 17 15 14 10 9 11 12 12 17 23 12 12 15 12 12 13 12
14 16 17 16 18 18 15 14 11 13 15 17 16 18 24 15 17 17 15 15 12 16
15 17 18 20 20 19 16 15 13 14 18 19 19 21 19 20 17 19 22 18 20 17
17 18 20 20 20 16 17 15 17 18 20 19 21 21 19 17 20 19 19 17 17 14
19 19 17 16 17 20 17 17 20 23 20 21 19 20 20 19 20 17 15 15 18 16
14 13 14 16 15 14 16 18 21 16 20 21 20 16 19 20 18 17 15 15 15 16
12 14 15 15 16 15 16 18 19 21 22 22 18 32 30 21 16 17 14 14 14 14
13 13 15 15 15 17 18 18 20 19 20 22 21 30 27 25 14 14 15 15 13 14
13 14 14 15 16 16 15 18 15 17 17 18 20 30 26 22 14 14 15 14 14 15
12 13 14 15 15 14 13 14 15 14 17 18 19 30 28 16 11 13 14 14 16 15
11 12 12 12 13 11 12 13 11 14 15 23 16 28 29 19 10 12 9 11 12 25
8 9 9 9 8 9 10 11 12 12 11 14 18 19 29 29 13 10 10 10 12 11
Wind_Direction
338 333 326 347 340 328 335 343 327 291 130 119 215 59 188 215 92 221 276 189 233 203
357 352 352 4 360 2 350 342 331 354 73 52 59 59 44 107 61 65 80 22 57 61
359 8 11 14 12 8 1 348 349 19 50 59 55 66 58 23 49 76 56 48 34 32
9 18 21 21 19 12 2 356 20 44 54 55 52 51 79 46 52 51 68 60 53 57
14 24 29 26 21 11 11 11 24 51 61 63 61 63 63 71 59 56 45 38 47 39
12 25 27 27 20 12 19 20 32 39 54 60 61 63 60 66 60 61 57 44 44 43
9 21 26 24 20 20 19 25 35 37 42 51 58 61 61 60 59 53 59 61 50 45
14 14 28 35 28 30 30 31 40 37 42 46 51 49 56 55 60 50 50 54 56 47
23 21 22 30 33 30 38 43 39 38 43 42 47 47 53 56 54 55 47 47 43 45
23 31 34 30 30 33 33 36 39 39 41 48 50 48 52 55 59 53 46 44 41 40
28 33 35 39 37 34 33 39 37 41 37 44 48 45 44 47 48 54 45 36 42 41
30 36 34 34 32 36 38 40 40 38 39 38 41 46 42 40 45 52 44 35 28 35
35 38 35 28 30 29 39 41 35 37 36 36 32 38 44 44 44 44 36 34 31 30
46 44 32 34 31 30 30 30 30 34 31 32 33 27 36 39 37 36 32 28 18 15